SCP
0 0 0 0 0 0 0 0 0 0 0 0 0 0 0 0 0 0 0 0 0 -0
0 0 0 0 0 0 0 0 0 0 0 0 0 0 0 0 0 0 0 0 -0 -0
0 0 0 0 0 0 0 0 0 0 0 0 0 0 0 0 0 0 0 0 0 0
0 0 0 0 0 0 0 0 0 0 0 0 0 0 0 0 0 0 0 0 0 -0
0 0 0 0 0 0 0 0 0 0 0 0 0 0 0 0 0 0 0 0 0 -0
0 0 0 0 0 0 0 0 0 0 0 0 0 0 0 0 0 0 0 0 0 -0
0 0 0 0 0 0 0 0 0 0 0 0 0 0 0 0 0 0 0 0 0 0
0 0 0 0 0 0 0 0 0 0 0 0 0 0 0 0 0 0 0 0 0 0
0 0 0 0 0 0 0 0 0 0 0 0 0 0 0 0 0 0 0 0 0 0
0 0 0 0 0 0 0 0 0 0 0 0 0 0 0 0 0 0 0 0 0 0
0 0 0 0 0 0 0 0 0 0 0 0 0 0 0 0 0 0 0 0 0 0
0 0 0 0 0 0 0 0 0 0 0 0 0 0 0 0 0 0 0 0 0 0
0 0 0 0 0 0 0 0 0 0 0 0 0 0 0 0 0 0 0 0 0 0
0 0 0 0 0 0 0 0 0 0 0 0 0 0 0 0 0 0 0 0 0 0
Wind_Speed_500mb
19 25 33 42 46 50 49 48 47 45 42 38 34 34 36 40 42 43 47 48 51 56
15 21 30 38 42 45 44 44 43 42 39 36 33 32 34 36 39 41 44 47 51 55
11 18 29 34 37 39 39 40 40 39 38 34 33 33 32 33 36 40 41 44 49 53
7 16 26 30 34 37 37 38 38 38 36 35 35 38 36 33 34 38 40 41 47 50
5 13 22 26 30 33 34 37 37 36 34 33 34 38 39 37 33 36 38 40 44 47
4 10 18 22 26 29 33 36 36 34 32 32 35 40 43 40 30 30 34 39 41 46
6 6 13 17 23 27 32 36 36 35 32 32 34 41 47 40 28 26 30 32 36 42
10 3 8 13 19 25 31 33 35 33 30 29 34 46 45 41 33 27 27 27 31 35
14 5 2 10 16 24 29 31 33 32 31 30 35 39 44 41 37 31 28 28 27 31
20 10 4 7 13 21 24 28 30 32 32 32 34 39 46 46 38 30 27 26 27 28
25 15 8 5 11 16 21 25 29 32 34 34 35 38 43 45 35 26 24 24 24 27
30 20 13 9 9 13 18 23 27 32 33 35 35 38 45 45 37 29 21 17 19 22
35 25 17 12 9 11 16 20 26 29 35 38 37 40 45 45 42 35 21 13 14 17
40 30 22 15 11 9 13 18 23 26 32 37 39 42 48 46 44 38 24 14 12 14
Wind_Direction_500mb
343 347 348 350 352 355 353 354 357 358 352 349 347 344 346 351 358 2 8 13 17 17
340 344 348 349 355 356 352 356 359 356 355 352 347 344 345 347 354 359 6 13 15 15
328 345 348 350 359 356 357 0 360 358 355 356 351 348 346 346 350 358 4 12 13 15
316 345 348 351 2 0 2 5 5 2 360 0 358 352 350 351 347 356 2 11 14 11
300 343 349 355 7 5 7 9 11 7 6 6 2 356 355 352 349 351 360 7 13 9
262 343 351 359 11 9 13 16 14 11 13 10 6 360 1 355 354 354 359 7 10 10
233 335 352 4 16 16 22 21 16 16 17 14 5 8 359 360 353 355 1 7 10 10
212 296 352 14 23 23 29 27 23 19 18 16 7 18 357 1 358 350 354 3 11 12
203 214 7 31 31 31 31 30 26 23 21 16 9 17 359 4 360 353 348 350 9 8
197 200 132 56 44 38 35 33 30 24 20 17 10 24 358 355 357 354 348 349 357 11
191 190 155 103 65 47 39 34 28 25 20 18 13 17 7 5 2 358 350 350 356 7
190 186 167 140 86 58 48 40 30 24 20 18 15 8 10 5 7 5 355 355 356 7
189 182 173 153 113 69 53 42 35 25 23 19 17 9 13 8 9 13 15 15 10 11
185 183 176 164 134 88 58 44 35 25 25 23 20 19 17 14 13 20 27 42 30 22
Wind_Speed_850mb
19 25 33 42 46 50 49 48 47 45 42 38 34 34 36 40 42 43 47 48 51 56
15 21 30 38 42 45 44 44 43 42 39 36 33 32 34 36 39 41 44 47 51 55
11 18 29 34 37 39 39 40 40 39 38 34 33 33 32 33 36 40 41 44 49 53
7 16 26 30 34 37 37 38 38 38 36 35 35 38 36 33 34 38 40 41 47 50
5 13 22 26 30 33 34 37 37 36 34 33 34 38 39 37 33 36 38 40 44 47
4 10 18 22 26 29 33 36 36 34 32 32 35 40 43 40 30 30 34 39 41 46
6 6 13 17 23 27 32 36 36 35 32 32 34 41 47 40 28 26 30 32 36 42
10 3 8 13 19 25 31 33 35 33 30 29 34 46 45 41 33 27 27 27 31 35
14 5 2 10 16 24 29 31 33 32 31 30 35 39 44 41 37 31 28 28 27 31
20 10 4 7 13 21 24 28 30 32 32 32 34 39 46 46 38 30 27 26 27 28
25 15 8 5 11 16 21 25 29 32 34 34 35 38 43 45 35 26 24 24 24 27
30 20 13 9 9 13 18 23 27 32 33 35 35 38 45 45 37 29 21 17 19 22
35 25 17 12 9 11 16 20 26 29 35 38 37 40 45 45 42 35 21 13 14 17
40 30 22 15 11 9 13 18 23 26 32 37 39 42 48 46 44 38 24 14 12 14
Wind_Direction_850mb
343 347 348 350 352 355 353 354 357 358 352 349 347 344 346 351 358 2 8 13 17 17
340 344 348 349 355 356 352 356 359 356 355 352 347 344 345 347 354 359 6 13 15 15
328 345 348 350 359 356 357 0 360 358 355 356 351 348 346 346 350 358 4 12 13 15
316 345 348 351 2 0 2 5 5 2 360 0 358 352 350 351 347 356 2 11 14 11
300 343 349 355 7 5 7 9 11 7 6 6 2 356 355 352 349 351 360 7 13 9
262 343 351 359 11 9 13 16 14 11 13 10 6 360 1 355 354 354 359 7 10 10
233 335 352 4 16 16 22 21 16 16 17 14 5 8 359 360 353 355 1 7 10 10
212 296 352 14 23 23 29 27 23 19 18 16 7 18 357 1 358 350 354 3 11 12
203 214 7 31 31 31 31 30 26 23 21 16 9 17 359 4 360 353 348 350 9 8
197 200 132 56 44 38 35 33 30 24 20 17 10 24 358 355 357 354 348 349 357 11
191 190 155 103 65 47 39 34 28 25 20 18 13 17 7 5 2 358 350 350 356 7
190 186 167 140 86 58 48 40 30 24 20 18 15 8 10 5 7 5 355 355 356 7
189 182 173 153 113 69 53 42 35 25 23 19 17 9 13 8 9 13 15 15 10 11
185 183 176 164 134 88 58 44 35 25 25 23 20 19 17 14 13 20 27 42 30 22